Back to catalog

STARLINK-3789

AliveCommunicationsVLEO
NORAD 52283·PAYLOAD·🇺🇸 United States

Launched Apr 21, 2022 from Cape Canaveral Space Force Station

Loading…

Next Passes (next 24 hours)

TLE

FreshSource: CelesTrak SupGP

Epoch: Sep 14, 2026, 21:15 UTC

1 52283C 22041Y   26257.88590278 -.00031456  00000+0 -95465-3 0  2577
2 52283  53.1609 333.8686 0001132  68.5518 349.3757 15.33559674    10

Track STARLINK-3789 in real time with AllMySat

Download on the App Store